Vorticity
nan nan nan nan nan nan nan nan nan nan nan nan nan nan nan nan nan nan nan nan nan nan nan nan nan nan nan nan nan nan nan nan nan nan nan nan nan nan nan nan nan nan nan nan nan nan nan nan nan
nan 5 6 9 7 3 8 6 -2 11 10 5 5 1 3 8 8 9 14 10 5 4 5 8 9 8 7 6 6 7 6 7 8 9 9 7 6 5 5 6 6 6 6 6 6 5 2 2 nan
nan 7 7 8 6 5 6 10 8 9 5 6 2 6 7 4 7 10 13 8 4 3 6 9 8 7 6 7 6 7 7 6 6 7 7 7 7 6 5 5 4 5 6 6 6 4 2 2 nan
nan 6 6 9 6 7 7 10 10 6 3 9 5 2 7 8 11 14 10 6 4 5 7 8 8 7 7 7 6 6 7 6 6 6 5 6 6 6 5 5 5 6 7 7 6 2 2 5 nan
nan 8 10 7 9 7 -1 11 9 7 5 4 7 5 1 6 11 15 10 6 4 6 7 8 8 7 6 6 5 5 6 7 7 6 5 5 6 6 5 5 7 7 7 6 4 2 2 8 nan
nan 7 9 11 7 7 5 6 6 6 6 1 7 10 6 7 11 8 6 7 5 6 7 7 6 6 6 6 6 6 7 7 5 6 7 5 5 5 6 4 6 7 6 6 3 2 3 9 nan
nan 7 9 12 8 7 13 4 6 6 3 9 5 3 8 8 10 10 6 7 6 5 6 7 6 6 6 6 7 7 5 4 7 8 6 6 6 5 5 5 7 7 5 5 5 3 3 9 nan
nan 6 10 10 9 4 14 8 3 4 10 10 3 7 10 9 8 10 6 5 5 5 6 7 7 6 6 6 6 6 8 6 6 5 5 5 3 4 3 5 6 6 5 5 4 3 3 3 nan
nan 8 9 8 11 4 6 8 7 7 7 2 17 21 14 6 7 7 4 5 6 7 6 6 7 6 6 6 5 6 6 4 3 2 2 1 3 3 5 6 7 6 6 4 4 3 3 1 nan
nan 7 7 2 9 8 3 8 5 10 4 2 15 20 13 5 7 5 5 5 6 6 5 7 7 7 6 5 5 5 2 1 1 3 3 6 7 6 5 4 4 3 5 3 3 0 -0 3 nan
nan 6 5 5 6 10 4 4 12 8 5 16 9 6 5 3 4 5 6 7 7 4 8 8 5 6 6 5 5 4 5 6 7 7 7 7 5 5 5 4 3 3 3 4 3 3 4 7 nan
nan 8 -1 2 6 12 9 4 8 7 12 18 12 5 6 4 5 6 7 6 5 7 8 5 5 6 5 5 6 8 8 7 9 8 6 5 5 6 7 7 7 6 6 7 5 7 8 8 nan
nan 9 -2 6 1 9 15 9 7 7 18 12 8 7 6 3 4 8 8 7 7 9 7 3 6 7 6 6 6 7 7 9 8 7 5 6 7 7 7 7 7 7 7 7 8 7 7 7 nan
nan 15 7 6 9 13 17 1 6 18 18 8 6 7 6 4 4 5 9 9 6 7 7 6 8 7 7 6 7 7 8 7 7 8 8 8 8 9 9 8 8 9 8 8 8 8 6 6 nan
nan 11 14 6 9 14 8 4 15 16 8 6 5 8 8 4 8 7 6 6 7 7 8 10 7 7 8 6 6 8 8 6 7 8 8 7 8 9 8 8 8 8 9 8 7 7 8 8 nan
nan 16 17 1 4 13 11 9 9 8 6 6 8 7 6 6 5 8 7 6 7 9 7 7 7 8 7 7 9 9 8 7 8 8 8 7 7 6 6 7 7 8 8 7 7 6 7 7 nan
nan 18 7 11 5 5 7 13 7 9 8 8 8 7 6 7 4 9 9 5 6 10 7 7 8 6 6 7 8 8 8 7 8 8 9 9 8 6 7 7 8 7 7 8 6 7 8 6 nan
nan 12 11 9 6 12 5 15 9 8 10 7 7 8 6 7 8 9 6 5 8 9 10 6 7 6 4 5 6 6 8 8 8 8 9 9 8 8 7 8 8 6 7 7 8 8 8 10 nan
nan 9 10 10 2 12 11 5 9 8 7 8 8 7 6 4 8 11 8 5 8 9 9 7 4 7 7 8 7 6 8 7 8 10 9 7 8 9 7 8 8 7 8 8 7 7 7 8 nan
nan 14 2 1 10 11 18 7 7 8 9 9 7 8 5 4 7 7 8 7 9 10 8 8 7 6 4 6 6 8 8 9 9 9 9 7 7 7 8 8 8 7 7 8 7 6 7 9 nan
nan 5 11 7 10 6 8 8 6 4 10 9 8 11 8 8 7 7 8 6 6 10 9 5 8 7 7 6 5 6 6 8 9 10 9 10 9 7 8 7 8 7 7 8 8 8 7 7 nan
nan 14 5 3 9 9 5 11 5 13 9 9 8 8 6 4 6 8 8 8 6 8 9 7 8 7 7 7 9 7 6 6 7 8 9 10 9 8 7 8 8 7 7 9 8 7 6 9 nan
nan 18 3 5 9 4 7 15 11 13 8 9 10 11 6 6 9 8 7 7 7 8 9 8 7 6 7 8 9 7 7 7 9 10 10 7 9 9 8 8 8 7 8 9 8 7 7 6 nan
nan 7 8 9 10 11 12 6 12 14 9 7 11 10 9 7 8 7 9 9 6 6 8 7 9 8 4 8 9 8 7 6 7 9 7 7 9 10 9 8 8 8 8 8 9 9 8 6 nan
nan 1 8 12 10 9 10 7 13 12 12 13 9 7 9 7 8 9 7 8 7 7 6 6 7 8 7 7 8 7 7 8 7 6 7 7 7 9 10 7 7 7 9 8 8 9 9 8 nan
nan 2 9 13 8 10 9 5 14 16 13 11 12 12 8 7 7 10 9 7 9 9 7 7 7 7 8 8 8 8 7 6 9 10 7 8 7 8 9 9 7 6 7 8 6 7 8 8 nan
nan 6 7 6 8 11 6 7 12 14 14 14 10 9 12 12 9 8 10 11 12 12 10 8 7 8 10 7 6 7 8 8 8 10 8 8 8 9 11 9 7 9 9 8 6 7 8 8 nan
nan 6 5 10 15 6 11 8 12 9 11 14 12 8 8 8 11 11 10 9 10 14 19 15 13 13 11 12 10 7 8 9 9 8 8 7 8 8 9 10 10 9 9 8 8 7 10 9 nan
nan 9 8 13 8 9 11 9 17 11 11 13 10 11 7 5 8 10 9 10 9 10 10 13 15 15 12 11 13 15 12 10 11 11 12 10 9 9 7 8 8 8 8 10 9 6 8 8 nan
nan nan nan nan nan nan nan nan nan nan nan nan nan nan nan nan nan nan nan nan nan nan nan nan nan nan nan nan nan nan nan nan nan nan nan nan nan nan nan nan nan nan nan nan nan nan nan nan nan
CAPE
176 168 160 54 0 0 0 0 0 0 0 0 22 109 118 47 64 11 24 233 366 572 856 1087 1651 1583 1525 1357 1445 1402 1408 1492 1283 1214 983 1101 796 1129 887 743 734 344 118 81 19 65 29 35 52
22 180 54 27 0 0 0 0 0 0 0 0 0 58 129 111 91 25 171 276 440 570 757 1037 1466 1533 1441 1449 1375 1402 1296 1330 1234 1242 999 743 1065 1180 555 453 315 262 149 100 65 26 133 108 117
154 171 34 12 0 0 0 0 0 0 0 0 5 165 169 143 79 52 138 380 399 383 689 1092 1290 1553 1495 1432 1387 1428 1428 1317 1221 962 964 966 806 598 438 275 149 196 103 22 22 19 46 53 82
393 481 94 0 0 0 0 0 0 0 0 5 81 164 96 50 84 52 203 287 335 373 705 1122 1382 1456 1453 1456 1390 1330 1204 843 962 914 922 838 530 314 141 54 106 87 50 32 20 27 19 28 53
216 25 57 0 0 0 0 0 2 0 0 51 119 108 96 65 45 129 406 509 367 373 541 861 1306 1333 1346 1211 1152 1138 973 962 902 807 853 591 227 141 37 36 108 26 12 12 29 25 15 25 97
317 13 0 0 0 0 0 0 0 9 8 52 192 123 74 69 69 288 450 342 257 308 489 601 863 878 846 824 905 930 877 968 680 386 604 391 382 113 30 34 89 39 20 24 23 18 24 32 69
154 8 0 0 0 0 0 6 14 0 0 116 193 126 74 126 206 371 353 299 221 215 288 275 298 349 474 583 666 581 545 464 557 428 488 501 413 250 82 95 62 21 16 20 11 12 19 27 79
163 1 0 0 0 0 0 2 21 8 0 89 120 96 122 217 378 395 461 292 198 130 104 58 43 56 110 184 257 232 264 379 523 375 177 86 106 140 113 47 51 31 22 2 0 8 15 12 33
132 66 1 0 0 0 0 14 1 8 98 388 222 131 114 291 382 416 357 275 189 129 56 1 11 16 14 15 59 122 129 104 82 20 0 1 0 1 0 2 12 11 14 0 0 0 1 0 1
189 43 0 0 0 0 0 3 79 331 467 344 408 275 261 409 308 442 259 208 195 105 43 3 44 36 22 32 17 49 35 3 0 0 1 0 0 0 0 0 0 6 1 0 0 0 0 0 0
106 17 20 18 0 0 0 38 71 321 396 631 570 377 318 334 441 472 237 185 192 112 58 28 11 46 42 9 4 23 4 1 0 0 0 0 0 0 0 0 0 0 0 0 0 0 0 0 0
57 55 7 57 51 46 0 8 243 234 367 782 618 414 351 338 577 530 332 212 137 140 30 8 0 34 39 13 20 23 7 0 0 0 0 0 0 0 0 0 0 0 0 0 0 0 0 0 0
72 9 1 62 61 18 1 97 60 12 532 794 593 409 352 273 312 308 392 276 144 120 66 25 15 9 57 57 64 59 41 0 0 0 0 0 0 0 0 0 0 0 0 0 0 0 0 0 0
0 4 2 47 32 8 0 67 129 384 825 750 594 378 268 202 368 323 358 359 211 148 109 82 27 0 3 69 58 33 0 0 0 0 0 0 0 0 0 2 1 0 0 0 0 0 0 0 0
11 5 59 34 12 0 6 76 240 824 759 661 459 308 256 212 407 366 381 350 168 187 127 186 50 88 98 103 33 0 0 0 0 0 0 0 0 0 0 0 0 0 0 0 0 0 0 0 0
12 5 70 23 0 0 5 7 292 832 627 480 352 221 174 272 424 397 363 171 254 254 254 181 214 116 116 53 13 0 0 0 0 0 0 0 0 0 0 0 0 0 0 0 0 0 0 0 0
1 70 19 6 3 0 0 1 219 741 499 316 293 187 286 263 292 343 341 139 143 263 269 162 114 158 134 18 0 0 0 0 0 0 0 0 0 0 0 0 0 0 0 0 0 0 0 0 0
0 0 4 0 0 0 0 180 302 433 352 216 229 254 275 469 383 290 308 115 82 148 271 144 147 142 112 10 2 0 0 0 0 0 0 0 0 0 0 0 0 0 0 0 0 0 0 0 0
0 0 0 3 0 0 0 229 216 238 161 203 161 234 321 361 252 240 293 133 25 42 138 135 118 60 36 0 0 0 0 0 0 0 0 0 0 0 0 0 0 0 0 0 0 0 0 0 0
0 14 0 0 0 0 0 121 341 216 215 187 172 145 138 277 270 304 266 147 181 83 141 86 66 40 10 0 0 0 0 0 0 0 0 0 0 0 0 0 0 0 0 0 0 0 0 0 0
1 1 2 0 0 0 74 142 162 114 235 151 115 117 83 181 181 262 257 96 208 148 143 85 70 21 16 4 0 0 0 0 0 0 0 0 0 0 0 0 0 0 0 0 0 0 0 0 0
1 0 4 0 0 1 1 3 13 40 304 203 77 89 60 81 76 142 316 147 244 172 133 106 26 0 1 0 0 0 0 0 0 0 0 0 0 0 0 0 0 0 0 0 0 0 0 0 0
18 3 1 0 0 0 0 23 0 27 60 195 103 117 50 66 76 84 172 226 221 212 180 77 17 1 2 0 0 0 0 0 0 0 0 0 0 0 0 0 0 0 0 0 0 0 0 0 0
18 1 2 0 1 0 0 0 0 1 5 176 219 167 198 104 107 91 111 70 146 181 144 62 14 6 0 0 0 0 0 0 0 0 0 0 0 0 0 0 0 0 0 0 0 0 0 0 0
2 1 0 0 0 0 0 8 0 1 0 172 221 263 233 160 152 93 71 98 111 207 165 142 64 6 13 2 0 0 0 0 0 0 0 0 0 0 0 0 0 0 0 0 0 0 0 0 0
0 0 0 0 0 0 0 1 0 0 11 113 222 319 375 231 201 164 108 59 83 126 225 223 163 112 23 0 0 0 0 0 0 0 0 0 0 0 0 0 0 0 0 0 0 0 0 0 0
0 0 0 0 0 0 0 0 0 0 0 2 43 35 125 187 153 118 113 104 103 116 188 270 289 202 89 53 0 0 0 0 0 0 0 0 0 0 0 7 6 12 2 1 2 1 2 0 0
0 0 0 0 0 0 0 0 0 0 0 0 0 37 70 94 16 56 27 10 0 1 56 138 265 323 250 119 52 22 0 0 3 4 2 0 0 0 0 4 7 8 13 11 12 19 1 0 0
0 0 0 0 0 0 0 0 0 0 0 0 64 101 69 0 0 0 0 0 0 0 0 0 0 0 0 0 0 23 10 15 26 29 16 8 0 0 2 10 12 25 21 20 21 4 5 2 0
0 0 0 0 0 0 0 0 0 0 0 0 84 42 0 0 0 0 0 0 0 0 0 0 0 0 0 0 0 0 0 0 0 1 11 5 1 0 0 0 15 13 9 16 0 0 1 0 0